Location: Ch�risy
(50.2331°N, 2.9131°E)
Time: 01:33:13
(UTC+00:00)

Feng Yun 1-1 Rocket - Pass Details

Date: 17 January 2021
Orbit: 830 x 933 km, 99.2° (Epoch: 28 February)

Event Time Altitude Azimuth Distance (km) Brightness Sun altitude
Rises 18:00:26 0° 169° (S) 3,364 7.4 -16.0°
Reaches altitude 10° 18:02:46 10° 172° (S) 2,440 6.7 -16.3°
Maximum altitude 18:08:09 71° 256° (WSW) 896 4.5 -17.2°
Drops below altitude 10° 18:13:41 10° 341° (NNW) 2,502 6.8 -18.0°
Sets 18:16:07 0° 343° (NNW) 3,458 7.5 -18.4°
